Rome, NY
on Thursday, December 7, 2017

Thursday
       
Previous Day Next Day
Daily Summary
 ActualAverageRecord
Temperature
Mean Temperature °F °C °F °C  
Max Temperature 36°F 2°C 37°F 2°C 47°F 8°C (1982)
Min Temperature 28°F -2°C 20°F -6°C 6°F -14°C (2008)
Degree Days
Heating Degree Days 33    
Moisture
Dew Point 24°F -4°C   
Average Humidity 70    
Maximum Humidity 88    
Minimum Humidity 54    
Precipitation
Precipitation 0.00 in / 0.00 cm in / cm in / cm ()
Wind
Wind Speed 11 mph / 18 km/h   
Max Wind Speed 17 mph / 27 km/h   
Max Gust Speed 24 mph / 39 km/h   
Visibility 8 miles / 13 kilometers   
Events Snow   
Averages and records for this station are not official NWS values.
Key: T is trace of precipitation, MM is missing value
Source: NWS Daily Summary
Seasonal Weather Averages
Time(EST)TemperatureDew PointHumidity Pressure Visibility Wind DirectionWind SpeedGust SpeedPrecipitationEvents Conditions
12:53 AM 36.0°F 2.2°C 24.1°F -4.4°C 62% 29.89 in / 1012.2 hPa 10.0 miles / 16.1 kilometers West 11.5 mph / 18.5 km/h - N/A   Overcast
1:53 AM 36.0°F 2.2°C 23.0°F -5.0°C 59% 29.91 in / 1012.6 hPa 10.0 miles / 16.1 kilometers WSW 9.2 mph / 14.8 km/h - N/A   Overcast
2:53 AM 36.0°F 2.2°C 21.0°F -6.1°C 55% 29.91 in / 1012.8 hPa 10.0 miles / 16.1 kilometers West 12.7 mph / 20.4 km/h - N/A   Overcast
3:53 AM 35.1°F 1.7°C 21.0°F -6.1°C 57% 29.91 in / 1012.6 hPa 10.0 miles / 16.1 kilometers West 11.5 mph / 18.5 km/h - N/A   Overcast
4:53 AM 35.1°F 1.7°C 19.9°F -6.7°C 54% 29.90 in / 1012.5 hPa 10.0 miles / 16.1 kilometers WSW 9.2 mph / 14.8 km/h - N/A   Overcast
5:53 AM 35.1°F 1.7°C 19.9°F -6.7°C 54% 29.92 in / 1013.0 hPa 10.0 miles / 16.1 kilometers WSW 13.8 mph / 22.2 km/h - N/A   Overcast
6:53 AM 34.0°F 1.1°C 21.0°F -6.1°C 59% 29.92 in / 1013.2 hPa 10.0 miles / 16.1 kilometers WSW 10.4 mph / 16.7 km/h - N/A   Overcast
7:53 AM 34.0°F 1.1°C 21.0°F -6.1°C 59% 29.93 in / 1013.5 hPa 10.0 miles / 16.1 kilometers West 6.9 mph / 11.1 km/h - N/A   Overcast
8:53 AM 34.0°F 1.1°C 21.9°F -5.6°C 61% 29.94 in / 1013.9 hPa 10.0 miles / 16.1 kilometers WSW 10.4 mph / 16.7 km/h - N/A   Overcast
9:53 AM 35.1°F 1.7°C 21.0°F -6.1°C 57% 29.95 in / 1014.0 hPa 10.0 miles / 16.1 kilometers WSW 10.4 mph / 16.7 km/h - N/A   Overcast
10:53 AM 33.1°F 0.6°C 25.0°F -3.9°C 72% 29.96 in / 1014.3 hPa 8.0 miles / 12.9 kilometers WSW 17.3 mph / 27.8 km/h 21.9 mph / 35.2 km/h N/A   Overcast
11:17 AM 32.0°F 0.0°C 27.0°F -2.8°C 82% 29.94 in / 1013.8 hPa 1.8 miles / 2.8 kilometers WSW 12.7 mph / 20.4 km/h - 0.00 in / 0.0 cm Snow Light Snow
11:28 AM 32.0°F 0.0°C 27.0°F -2.8°C 82% 29.94 in / 1013.8 hPa 3.0 miles / 4.8 kilometers WSW 12.7 mph / 20.4 km/h - 0.00 in / 0.0 cm Snow Light Snow
11:53 AM 33.1°F 0.6°C 27.0°F -2.8°C 78% 29.94 in / 1013.8 hPa 7.0 miles / 11.3 kilometers West 6.9 mph / 11.1 km/h - 0.00 in / 0.0 cm Snow Light Snow
12:36 PM 34.0°F 1.1°C 25.0°F -3.9°C 70% 29.91 in / 1012.8 hPa 10.0 miles / 16.1 kilometers WSW 11.5 mph / 18.5 km/h - 0.00 in / 0.0 cm   Overcast
12:53 PM 34.0°F 1.1°C 25.0°F -3.9°C 70% 29.91 in / 1012.9 hPa 10.0 miles / 16.1 kilometers WSW 8.1 mph / 13.0 km/h - 0.00 in / 0.0 cm   Overcast
1:02 PM 34.0°F 1.1°C 25.0°F -3.9°C 70% 29.90 in / 1012.4 hPa 10.0 miles / 16.1 kilometers WSW 11.5 mph / 18.5 km/h - N/A   Overcast
1:53 PM 34.0°F 1.1°C 21.9°F -5.6°C 61% 29.90 in / 1012.5 hPa 10.0 miles / 16.1 kilometers SW 11.5 mph / 18.5 km/h - N/A   Overcast
2:53 PM 34.0°F 1.1°C 21.9°F -5.6°C 61% 29.90 in / 1012.4 hPa 10.0 miles / 16.1 kilometers WSW 15.0 mph / 24.1 km/h 20.7 mph / 33.3 km/h N/A   Overcast
3:53 PM 34.0°F 1.1°C 21.9°F -5.6°C 61% 29.91 in / 1012.7 hPa 10.0 miles / 16.1 kilometers WSW 11.5 mph / 18.5 km/h - N/A   Overcast
4:53 PM 33.1°F 0.6°C 23.0°F -5.0°C 66% 29.91 in / 1012.9 hPa 10.0 miles / 16.1 kilometers WSW 8.1 mph / 13.0 km/h - N/A   Overcast
5:53 PM 30.9°F -0.6°C 24.1°F -4.4°C 76% 29.93 in / 1013.4 hPa 10.0 miles / 16.1 kilometers West 6.9 mph / 11.1 km/h - N/A   Overcast
6:32 PM 30.9°F -0.6°C 26.1°F -3.3°C 82% 29.93 in / 1013.4 hPa 2.0 miles / 3.2 kilometers West 16.1 mph / 25.9 km/h 23.0 mph / 37.0 km/h 0.00 in / 0.0 cm Snow Light Snow
6:38 PM 30.0°F -1.1°C 26.1°F -3.3°C 85% 29.93 in / 1013.4 hPa 2.0 miles / 3.2 kilometers West 10.4 mph / 16.7 km/h 24.2 mph / 38.9 km/h 0.00 in / 0.0 cm Snow Light Snow
6:45 PM 30.0°F -1.1°C 27.0°F -2.8°C 88% 29.93 in / 1013.4 hPa 2.0 miles / 3.2 kilometers West 8.1 mph / 13.0 km/h - 0.00 in / 0.0 cm Snow Light Snow
6:53 PM 30.0°F -1.1°C 27.0°F -2.8°C 88% 29.94 in / 1013.8 hPa 2.0 miles / 3.2 kilometers WSW 8.1 mph / 13.0 km/h - 0.00 in / 0.0 cm Snow Light Snow
7:00 PM 30.0°F -1.1°C 27.0°F -2.8°C 88% 29.93 in / 1013.4 hPa 5.0 miles / 8.0 kilometers WSW 8.1 mph / 13.0 km/h - 0.00 in / 0.0 cm Snow Light Snow
7:10 PM 30.0°F -1.1°C 25.0°F -3.9°C 82% 29.93 in / 1013.4 hPa 9.0 miles / 14.5 kilometers WSW 6.9 mph / 11.1 km/h - 0.00 in / 0.0 cm   Overcast
7:53 PM 28.9°F -1.7°C 24.1°F -4.4°C 82% 29.95 in / 1014.0 hPa 10.0 miles / 16.1 kilometers WSW 6.9 mph / 11.1 km/h - 0.00 in / 0.0 cm   Scattered Clouds
8:53 PM 30.0°F -1.1°C 24.1°F -4.4°C 79% 29.96 in / 1014.6 hPa 10.0 miles / 16.1 kilometers SW 5.8 mph / 9.3 km/h - N/A   Overcast
9:53 PM 30.0°F -1.1°C 21.9°F -5.6°C 72% 29.97 in / 1014.7 hPa 10.0 miles / 16.1 kilometers WSW 8.1 mph / 13.0 km/h - N/A   Overcast
10:53 PM 30.0°F -1.1°C 21.0°F -6.1°C 69% 29.96 in / 1014.6 hPa 10.0 miles / 16.1 kilometers WSW 11.5 mph / 18.5 km/h 18.4 mph / 29.6 km/h N/A   Overcast
11:53 PM 28.9°F -1.7°C 19.9°F -6.7°C 69% 29.97 in / 1014.9 hPa 10.0 miles / 16.1 kilometers WSW 10.4 mph / 16.7 km/h - N/A   Mostly Cloudy